STARLINK-32787, 62809

Orbit data source: Space-Track

STARLINK-32787, 62809 is a payload satellite owned by SpaceX/Seattle (US) in LEO that was launched on Fri, 24 Jan 2025 UTC via an FALCON 9 launch vehicle from the Air Force Western Test Range (AFWTR). Payload-class satellites include a variety of spacecraft equipped with specific instruments for various scientific and technological missions. These include communications satellites like Starlink; space stations such as the ISS; scientific satellites like the Hubble; Earth observation satellites from companies like Planet Labs, Umbra, and HawkEye 360; GPS; miniature CubeSats for education and research; and military/defense satellites.

Loading next visibility...
Identifier
62809, 2025-018D
Orbit
LEO
Last TLE update
9 hours ago
Origin
Manufacturer
SpaceX/Seattle
Mission
Operational Commercial Communications
Bus & Motor
STARLINK V2M, Unknown motor
Mass
730 kg wet, ~700 kg dry
Launch date (UTC)
2025-01-24 (6 months ago)
Launch vehicle
FALCON 9
Launch site
Air Force Western Test Range (AFWTR)
Object type
Payload
Rocket body
Debris
Shape & HBR
Box + 2 Pan, 14.5 m
Radar Cross Section
33.884 m², Large (>1 m²)

Expand to show TLE details & history

TLE from 9 hours ago
0 STARLINK-32787
1 62809U 25018D   25199.62488397  .00017212  00000-0  59223-3 0  9991
2 62809  53.1571 316.6951 0001223  78.1329 281.9809 15.30181917 27336
Epoch: 2025-07-18T14:59Z
TLE epoch observation values (Epoch: 2025-07-18T14:59:49.974Z)
Latitude
-0.00003°
Longitude
155.06319°
Altitude
475.995 km
Speed
7.629 km/s
True Right ascension
21h 06m 46s
True Declination
0° 00' 00"
Sunlit
Object was in full shadow at epoch
Visualization orbit readout
Latitude
3.88995°
Longitude
-29.50588°
Altitude
475.795 km
Speed
7.629 km/s
Apparent Right ascension
05h 48m 14s
Apparent Declination
-32° 53' 45"
Sunlit
Object is in daylight
Visualization observer readout
Local Sidereal Time
12:23:26
Azimuth
248.067° W
Elevation
-26.553°
Doppler factor
1
Orbital elements
Apogee altitude
476.364 km
Perigee altitude
474.688 km
Semi-major axis
6,853.663 km
Eccentricity
0.00012
Inclination
53.1571°
RAAN
316.6951°
Arg. of periapsis
78.1329°
True anomaly
281.96719°
Mean anomaly
281.9809°
Eccentric anomaly
281.97405°
Mean motion
3.82524 °/min
Orbital period
94.11 mins
BSTAR
0.00059223
Loading maneuver chart data...
Loading SW <> Apogee altitude chart data...
Loading historical data...
Loading historical data...
Loading historical data...
Loading historical data...
Loading historical data...
Loading historical data...
Loading historical data...
|